Location: Staunton
(38.1490°N, 79.0720°W)
Time: 02:00:08
(UTC-04:00)

ISS - Pass Details

Date: 18 March 2018
Orbit: 402 x 407 km, 51.6° (Epoch: 25 June)

Event Time Altitude Azimuth Distance (km) Brightness Sun altitude
Exits shadow 04:58:07 16° 45° (NE) 1,149 -0.8 -28.6°
Drops below altitude 10° 04:59:36 10° 70° (ENE) 1,474 0.0 -28.3°
Enters shadow 05:59:32 -63° 302° (WNW) 11,869 3.5 -17.1°
Maximum altitude 06:34:07 67° 222° (SW) 444 -3.8 -10.4°
